Time,TemperatureF,DewpointF,PressureIn,WindDirection,WindDirectionDegrees,WindSpeedMPH,WindSpeedGustMPH,Humidity,HourlyPrecipIn,Conditions,Clouds,dailyrainin,SoftwareType,DateUTC
2013-10-10 00:01:00,48.6,44.9,30.33,East,84,0.0,0.0,87,0.00,,,0.00,WeatherCatV1.15B25,2013-10-10 04:01:00,
2013-10-10 00:06:00,48.5,44.8,30.33,East,83,0.0,0.0,87,0.00,,,0.00,WeatherCatV1.15B25,2013-10-10 04:06:00,
2013-10-10 00:11:00,48.3,44.6,30.33,East,84,0.0,0.0,87,0.00,,,0.00,WeatherCatV1.15B25,2013-10-10 04:11:00,
2013-10-10 00:16:00,48.2,44.5,30.32,East,84,0.0,0.0,87,0.00,,,0.00,WeatherCatV1.15B25,2013-10-10 04:16:00,
2013-10-10 00:21:00,48.1,44.7,30.32,East,83,0.0,0.0,88,0.00,,,0.00,WeatherCatV1.15B25,2013-10-10 04:21:00,
2013-10-10 00:26:00,47.9,44.5,30.32,East,84,0.0,1.0,88,0.00,,,0.00,WeatherCatV1.15B25,2013-10-10 04:26:00,
2013-10-10 00:31:00,48.0,44.6,30.32,East,84,0.0,0.0,88,0.00,,,0.00,WeatherCatV1.15B25,2013-10-10 04:31:00,
2013-10-10 00:36:00,47.9,44.5,30.32,East,84,0.0,0.0,88,0.00,,,0.00,WeatherCatV1.15B25,2013-10-10 04:36:00,
2013-10-10 00:41:00,47.9,44.5,30.32,East,86,0.0,1.0,88,0.00,,,0.00,WeatherCatV1.15B25,2013-10-10 04:41:00,
2013-10-10 00:46:00,47.9,44.5,30.32,East,86,0.0,0.0,88,0.00,,,0.00,WeatherCatV1.15B25,2013-10-10 04:46:00,
2013-10-10 00:51:00,47.8,44.4,30.32,East,86,0.0,0.0,88,0.00,,,0.00,WeatherCatV1.15B25,2013-10-10 04:51:00,
2013-10-10 00:56:00,47.7,44.6,30.32,East,86,0.0,0.0,89,0.00,,,0.00,WeatherCatV1.15B25,2013-10-10 04:56:00,
2013-10-10 01:01:00,47.7,44.6,30.32,East,86,0.0,0.0,89,0.00,,,0.00,WeatherCatV1.15B25,2013-10-10 05:01:00,
2013-10-10 01:06:00,47.5,44.4,30.32,East,86,0.0,0.0,89,0.00,,,0.00,WeatherCatV1.15B25,2013-10-10 05:06:00,
2013-10-10 01:11:00,47.4,44.6,30.32,East,86,0.0,0.0,90,0.00,,,0.00,WeatherCatV1.15B25,2013-10-10 05:11:00,
2013-10-10 01:16:00,47.4,44.6,30.32,East,86,0.0,0.0,90,0.00,,,0.00,WeatherCatV1.15B25,2013-10-10 05:16:00,
2013-10-10 01:21:00,47.4,44.3,30.31,East,86,0.0,0.0,89,0.00,,,0.00,WeatherCatV1.15B25,2013-10-10 05:21:00,
2013-10-10 01:26:00,47.5,44.4,30.31,East,86,0.0,0.0,89,0.00,,,0.00,WeatherCatV1.15B25,2013-10-10 05:26:00,
2013-10-10 01:31:00,47.5,44.4,30.31,East,86,0.0,0.0,89,0.00,,,0.00,WeatherCatV1.15B25,2013-10-10 05:31:00,
2013-10-10 01:36:00,47.4,44.0,30.31,East,86,0.0,0.0,88,0.00,,,0.00,WeatherCatV1.15B25,2013-10-10 05:36:00,
2013-10-10 01:41:00,47.4,44.0,30.30,East,86,0.0,1.0,88,0.00,,,0.00,WeatherCatV1.15B25,2013-10-10 05:41:00,
2013-10-10 01:46:00,47.3,43.9,30.31,East,86,0.0,0.0,88,0.00,,,0.00,WeatherCatV1.15B25,2013-10-10 05:46:00,
2013-10-10 01:51:00,47.2,43.8,30.31,East,86,0.0,0.0,88,0.00,,,0.00,WeatherCatV1.15B25,2013-10-10 05:51:00,
2013-10-10 01:56:00,47.2,43.8,30.31,East,86,0.0,0.0,88,0.00,,,0.00,WeatherCatV1.15B25,2013-10-10 05:56:00,
2013-10-10 02:01:00,47.1,43.7,30.31,East,86,0.0,1.0,88,0.00,,,0.00,WeatherCatV1.15B25,2013-10-10 06:01:00,
2013-10-10 02:06:00,47.0,43.6,30.31,East,86,0.0,0.0,88,0.00,,,0.00,WeatherCatV1.15B25,2013-10-10 06:06:00,
2013-10-10 02:11:00,46.9,43.5,30.31,East,86,0.0,1.0,88,0.00,,,0.00,WeatherCatV1.15B25,2013-10-10 06:11:00,
2013-10-10 02:16:00,46.8,43.4,30.30,East,86,0.0,1.0,88,0.00,,,0.00,WeatherCatV1.15B25,2013-10-10 06:16:00,
2013-10-10 02:21:00,46.8,43.4,30.30,SE,130,0.0,0.0,88,0.00,,,0.00,WeatherCatV1.15B25,2013-10-10 06:21:00,
2013-10-10 02:26:00,46.7,43.0,30.29,SE,130,0.0,1.0,87,0.00,,,0.00,WeatherCatV1.15B25,2013-10-10 06:26:00,
2013-10-10 02:31:00,46.7,43.3,30.29,SE,130,0.0,0.0,88,0.00,,,0.00,WeatherCatV1.15B25,2013-10-10 06:31:00,
2013-10-10 02:36:00,46.6,43.2,30.29,SE,130,0.0,0.0,88,0.00,,,0.00,WeatherCatV1.15B25,2013-10-10 06:36:00,
2013-10-10 02:41:00,46.4,43.3,30.28,SE,130,0.0,0.0,89,0.00,,,0.00,WeatherCatV1.15B25,2013-10-10 06:41:00,
2013-10-10 02:46:00,46.2,43.1,30.28,SE,130,0.0,0.0,89,0.00,,,0.00,WeatherCatV1.15B25,2013-10-10 06:46:00,
2013-10-10 02:51:00,46.0,43.2,30.28,SE,130,0.0,0.0,90,0.00,,,0.00,WeatherCatV1.15B25,2013-10-10 06:51:00,
2013-10-10 02:56:00,45.7,42.9,30.28,SE,130,0.0,0.0,90,0.00,,,0.00,WeatherCatV1.15B25,2013-10-10 06:56:00,
2013-10-10 03:01:00,45.5,42.7,30.28,SE,130,0.0,0.0,90,0.00,,,0.00,WeatherCatV1.15B25,2013-10-10 07:01:00,
2013-10-10 03:06:00,45.4,42.9,30.27,SE,130,0.0,0.0,91,0.00,,,0.00,WeatherCatV1.15B25,2013-10-10 07:06:00,
2013-10-10 03:11:00,45.3,42.8,30.28,SE,130,0.0,0.0,91,0.00,,,0.00,WeatherCatV1.15B25,2013-10-10 07:11:00,
2013-10-10 03:16:00,45.3,42.8,30.27,SE,130,0.0,0.0,91,0.00,,,0.00,WeatherCatV1.15B25,2013-10-10 07:16:00,
2013-10-10 03:21:00,45.4,42.9,30.27,SE,130,0.0,0.0,91,0.00,,,0.00,WeatherCatV1.15B25,2013-10-10 07:21:00,
2013-10-10 03:26:00,45.4,42.9,30.27,SE,130,0.0,0.0,91,0.00,,,0.00,WeatherCatV1.15B25,2013-10-10 07:26:00,
2013-10-10 03:31:00,45.5,42.7,30.27,SE,130,0.0,1.0,90,0.00,,,0.00,WeatherCatV1.15B25,2013-10-10 07:31:00,
2013-10-10 03:36:00,45.6,42.8,30.27,SE,130,0.0,1.0,90,0.00,,,0.00,WeatherCatV1.15B25,2013-10-10 07:36:00,
2013-10-10 03:41:00,45.6,42.8,30.27,SE,130,0.0,0.0,90,0.00,,,0.00,WeatherCatV1.15B25,2013-10-10 07:41:00,
2013-10-10 03:46:00,45.5,42.7,30.27,SE,130,0.0,0.0,90,0.00,,,0.00,WeatherCatV1.15B25,2013-10-10 07:46:00,
2013-10-10 03:51:00,45.5,42.7,30.27,SE,130,0.0,0.0,90,0.00,,,0.00,WeatherCatV1.15B25,2013-10-10 07:51:00,
2013-10-10 03:56:00,45.5,42.7,30.28,SE,130,0.0,0.0,90,0.00,,,0.00,WeatherCatV1.15B25,2013-10-10 07:56:00,
2013-10-10 04:01:00,45.6,42.8,30.27,SE,130,0.0,0.0,90,0.00,,,0.00,WeatherCatV1.15B25,2013-10-10 08:01:00,
2013-10-10 04:06:00,45.8,42.7,30.28,SE,130,0.0,0.0,89,0.00,,,0.00,WeatherCatV1.15B25,2013-10-10 08:06:00,
2013-10-10 04:11:00,46.0,42.9,30.28,SE,130,0.0,0.0,89,0.00,,,0.00,WeatherCatV1.15B25,2013-10-10 08:11:00,
2013-10-10 04:16:00,45.9,42.8,30.28,SE,130,0.0,0.0,89,0.00,,,0.00,WeatherCatV1.15B25,2013-10-10 08:16:00,
2013-10-10 04:21:00,45.9,42.5,30.28,SE,130,0.0,0.0,88,0.00,,,0.00,WeatherCatV1.15B25,2013-10-10 08:21:00,
2013-10-10 04:26:00,46.0,42.9,30.28,SE,130,0.0,0.0,89,0.00,,,0.00,WeatherCatV1.15B25,2013-10-10 08:26:00,
2013-10-10 04:31:00,46.0,42.9,30.28,SE,130,0.0,1.0,89,0.00,,,0.00,WeatherCatV1.15B25,2013-10-10 08:31:00,
2013-10-10 04:36:00,46.0,42.9,30.28,SE,130,0.0,0.0,89,0.00,,,0.00,WeatherCatV1.15B25,2013-10-10 08:36:00,
2013-10-10 04:41:00,46.0,43.2,30.28,SE,130,0.0,0.0,90,0.00,,,0.00,WeatherCatV1.15B25,2013-10-10 08:41:00,
2013-10-10 04:46:00,46.0,43.2,30.28,SE,130,0.0,0.0,90,0.00,,,0.00,WeatherCatV1.15B25,2013-10-10 08:46:00,
2013-10-10 04:51:00,46.0,43.2,30.28,SE,130,0.0,0.0,90,0.00,,,0.00,WeatherCatV1.15B25,2013-10-10 08:51:00,
2013-10-10 04:56:00,46.0,43.2,30.28,SE,130,1.0,1.0,90,0.00,,,0.00,WeatherCatV1.15B25,2013-10-10 08:56:00,
2013-10-10 05:01:00,46.1,43.3,30.29,SE,130,0.0,0.0,90,0.00,,,0.00,WeatherCatV1.15B25,2013-10-10 09:01:00,
2013-10-10 05:06:00,46.0,43.5,30.29,SE,130,0.0,1.0,91,0.00,,,0.00,WeatherCatV1.15B25,2013-10-10 09:06:00,
2013-10-10 05:11:00,45.9,43.4,30.29,SE,130,0.0,1.0,91,0.00,,,0.00,WeatherCatV1.15B25,2013-10-10 09:11:00,
2013-10-10 05:16:00,45.9,43.4,30.28,SE,130,0.0,1.0,91,0.00,,,0.00,WeatherCatV1.15B25,2013-10-10 09:16:00,
2013-10-10 05:21:00,45.8,43.3,30.29,SE,126,0.0,1.0,91,0.00,,,0.00,WeatherCatV1.15B25,2013-10-10 09:21:00,
2013-10-10 05:26:00,45.8,43.6,30.28,SE,127,0.0,1.0,92,0.00,,,0.00,WeatherCatV1.15B25,2013-10-10 09:26:00,
2013-10-10 05:31:00,45.8,43.6,30.28,SE,126,0.0,0.0,92,0.00,,,0.00,WeatherCatV1.15B25,2013-10-10 09:31:00,
2013-10-10 05:36:00,45.8,43.6,30.28,SE,126,0.0,0.0,92,0.00,,,0.00,WeatherCatV1.15B25,2013-10-10 09:36:00,
2013-10-10 05:41:00,45.8,43.6,30.28,SE,127,0.0,0.0,92,0.00,,,0.00,WeatherCatV1.15B25,2013-10-10 09:41:00,
2013-10-10 05:46:00,45.8,43.6,30.28,SE,127,0.0,1.0,92,0.00,,,0.00,WeatherCatV1.15B25,2013-10-10 09:46:00,
2013-10-10 05:51:00,45.7,43.5,30.28,SE,127,0.0,1.0,92,0.00,,,0.00,WeatherCatV1.15B25,2013-10-10 09:51:00,
2013-10-10 05:56:00,45.7,43.5,30.28,SE,127,0.0,0.0,92,0.00,,,0.00,WeatherCatV1.15B25,2013-10-10 09:56:00,
2013-10-10 06:01:00,45.6,43.4,30.28,SE,127,0.0,0.0,92,0.00,,,0.00,WeatherCatV1.15B25,2013-10-10 10:01:00,
2013-10-10 06:06:00,45.6,43.7,30.28,SE,127,0.0,0.0,93,0.00,,,0.00,WeatherCatV1.15B25,2013-10-10 10:06:00,
2013-10-10 06:11:00,45.6,43.4,30.28,SE,126,0.0,0.0,92,0.00,,,0.00,WeatherCatV1.15B25,2013-10-10 10:11:00,
2013-10-10 06:16:00,45.6,43.4,30.28,SE,126,0.0,0.0,92,0.00,,,0.00,WeatherCatV1.15B25,2013-10-10 10:16:00,
2013-10-10 06:21:00,45.5,43.3,30.28,SE,127,0.0,0.0,92,0.00,,,0.00,WeatherCatV1.15B25,2013-10-10 10:21:00,
2013-10-10 06:26:00,45.4,42.9,30.28,SE,127,0.0,0.0,91,0.00,,,0.00,WeatherCatV1.15B25,2013-10-10 10:26:00,
2013-10-10 06:31:00,45.1,42.6,30.27,SE,127,0.0,0.0,91,0.00,,,0.00,WeatherCatV1.15B25,2013-10-10 10:31:00,
2013-10-10 06:36:00,45.0,42.2,30.27,SE,126,0.0,0.0,90,0.00,,,0.00,WeatherCatV1.15B25,2013-10-10 10:36:00,
2013-10-10 06:41:00,45.0,42.5,30.27,SE,126,0.0,0.0,91,0.00,,,0.00,WeatherCatV1.15B25,2013-10-10 10:41:00,
2013-10-10 06:46:00,44.9,42.4,30.27,SE,126,0.0,0.0,91,0.00,,,0.00,WeatherCatV1.15B25,2013-10-10 10:46:00,
2013-10-10 06:51:00,44.9,42.4,30.27,SE,127,0.0,0.0,91,0.00,,,0.00,WeatherCatV1.15B25,2013-10-10 10:51:00,
2013-10-10 06:56:00,44.8,42.3,30.27,SE,126,0.0,0.0,91,0.00,,,0.00,WeatherCatV1.15B25,2013-10-10 10:56:00,
2013-10-10 07:01:00,44.7,41.9,30.27,SE,126,0.0,0.0,90,0.00,,,0.00,WeatherCatV1.15B25,2013-10-10 11:01:00,
2013-10-10 07:06:00,44.6,41.8,30.27,SE,126,0.0,0.0,90,0.00,,,0.00,WeatherCatV1.15B25,2013-10-10 11:06:00,
2013-10-10 07:11:00,44.6,41.8,30.27,SE,126,0.0,0.0,90,0.00,,,0.00,WeatherCatV1.15B25,2013-10-10 11:11:00,
2013-10-10 07:16:00,44.6,41.8,30.27,SE,127,0.0,0.0,90,0.00,,,0.00,WeatherCatV1.15B25,2013-10-10 11:16:00,
2013-10-10 07:21:00,44.7,41.9,30.27,SE,126,0.0,0.0,90,0.00,,,0.00,WeatherCatV1.15B25,2013-10-10 11:21:00,
2013-10-10 07:26:00,44.8,42.0,30.27,SE,127,0.0,0.0,90,0.00,,,0.00,WeatherCatV1.15B25,2013-10-10 11:26:00,
2013-10-10 07:31:00,44.8,42.0,30.27,SE,126,0.0,0.0,90,0.00,,,0.00,WeatherCatV1.15B25,2013-10-10 11:31:00,
2013-10-10 07:36:00,44.8,41.8,30.27,SE,126,0.0,0.0,89,0.00,,,0.00,WeatherCatV1.15B25,2013-10-10 11:36:00,
2013-10-10 07:41:00,44.8,41.8,30.27,SE,126,0.0,0.0,89,0.00,,,0.00,WeatherCatV1.15B25,2013-10-10 11:41:00,
2013-10-10 07:46:00,44.9,41.9,30.27,SE,126,0.0,0.0,89,0.00,,,0.00,WeatherCatV1.15B25,2013-10-10 11:46:00,
2013-10-10 07:51:00,45.0,42.0,30.27,SE,127,0.0,0.0,89,0.00,,,0.00,WeatherCatV1.15B25,2013-10-10 11:51:00,
2013-10-10 07:56:00,45.0,42.0,30.27,SE,126,0.0,0.0,89,0.00,,,0.00,WeatherCatV1.15B25,2013-10-10 11:56:00,
2013-10-10 08:01:00,45.2,42.2,30.27,SE,126,0.0,0.0,89,0.00,,,0.00,WeatherCatV1.15B25,2013-10-10 12:01:00,
2013-10-10 08:06:00,45.3,42.3,30.27,SE,126,0.0,0.0,89,0.00,,,0.00,WeatherCatV1.15B25,2013-10-10 12:06:00,
2013-10-10 08:11:00,45.4,42.1,30.27,SE,127,0.0,0.0,88,0.00,,,0.00,WeatherCatV1.15B25,2013-10-10 12:11:00,
2013-10-10 08:16:00,45.3,42.0,30.27,SE,127,0.0,0.0,88,0.00,,,0.00,WeatherCatV1.15B25,2013-10-10 12:16:00,
2013-10-10 08:21:00,45.4,42.3,30.27,SE,126,0.0,0.0,89,0.00,,,0.00,WeatherCatV1.15B25,2013-10-10 12:21:00,
2013-10-10 08:26:00,45.3,42.0,30.27,SE,126,0.0,0.0,88,0.00,,,0.00,WeatherCatV1.15B25,2013-10-10 12:26:00,
2013-10-10 08:31:00,45.4,42.1,30.27,SE,126,0.0,0.0,88,0.00,,,0.00,WeatherCatV1.15B25,2013-10-10 12:31:00,
2013-10-10 08:36:00,45.5,42.2,30.27,SE,127,0.0,0.0,88,0.00,,,0.00,WeatherCatV1.15B25,2013-10-10 12:36:00,
2013-10-10 08:41:00,45.5,42.2,30.27,SE,127,0.0,0.0,88,0.00,,,0.00,WeatherCatV1.15B25,2013-10-10 12:41:00,
2013-10-10 08:46:00,45.6,42.3,30.27,SE,127,0.0,0.0,88,0.00,,,0.00,WeatherCatV1.15B25,2013-10-10 12:46:00,
2013-10-10 08:51:00,45.8,42.5,30.26,SE,127,0.0,0.0,88,0.00,,,0.00,WeatherCatV1.15B25,2013-10-10 12:51:00,
2013-10-10 08:56:00,46.0,42.9,30.27,SE,126,0.0,0.0,89,0.00,,,0.00,WeatherCatV1.15B25,2013-10-10 12:56:00,
2013-10-10 09:01:00,46.2,42.8,30.27,SE,127,0.0,0.0,88,0.00,,,0.00,WeatherCatV1.15B25,2013-10-10 13:01:00,
2013-10-10 09:06:00,46.1,42.4,30.27,SE,127,0.0,0.0,87,0.00,,,0.00,WeatherCatV1.15B25,2013-10-10 13:06:00,
2013-10-10 09:11:00,46.0,42.3,30.27,SE,127,0.0,0.0,87,0.00,,,0.00,WeatherCatV1.15B25,2013-10-10 13:11:00,
2013-10-10 09:16:00,46.0,42.3,30.27,SE,126,0.0,0.0,87,0.00,,,0.00,WeatherCatV1.15B25,2013-10-10 13:16:00,
2013-10-10 09:21:00,46.1,42.4,30.27,SE,126,0.0,0.0,87,0.00,,,0.00,WeatherCatV1.15B25,2013-10-10 13:21:00,
2013-10-10 09:26:00,46.1,42.4,30.27,SE,127,0.0,0.0,87,0.00,,,0.00,WeatherCatV1.15B25,2013-10-10 13:26:00,
2013-10-10 09:31:00,46.1,42.4,30.27,SE,126,0.0,0.0,87,0.00,,,0.00,WeatherCatV1.15B25,2013-10-10 13:31:00,
2013-10-10 09:36:00,46.3,42.6,30.27,SE,126,0.0,0.0,87,0.00,,,0.00,WeatherCatV1.15B25,2013-10-10 13:36:00,
2013-10-10 09:41:00,46.4,42.7,30.27,SE,126,0.0,0.0,87,0.00,,,0.00,WeatherCatV1.15B25,2013-10-10 13:41:00,
2013-10-10 09:46:00,46.5,43.1,30.28,SE,126,0.0,0.0,88,0.00,,,0.00,WeatherCatV1.15B25,2013-10-10 13:46:00,
2013-10-10 09:51:00,46.7,43.3,30.27,SE,126,0.0,0.0,88,0.00,,,0.00,WeatherCatV1.15B25,2013-10-10 13:51:00,
2013-10-10 09:56:00,46.8,43.4,30.27,SE,126,0.0,0.0,88,0.00,,,0.00,WeatherCatV1.15B25,2013-10-10 13:56:00,
2013-10-10 10:01:00,47.0,43.9,30.27,SE,126,0.0,0.0,89,0.00,,,0.00,WeatherCatV1.15B25,2013-10-10 14:01:00,
2013-10-10 10:06:00,47.0,43.3,30.27,SE,126,0.0,0.0,87,0.00,,,0.00,WeatherCatV1.15B25,2013-10-10 14:06:00,
2013-10-10 10:11:00,47.0,43.6,30.27,SE,126,0.0,0.0,88,0.00,,,0.00,WeatherCatV1.15B25,2013-10-10 14:11:00,
2013-10-10 10:16:00,46.9,43.5,30.26,SE,126,0.0,0.0,88,0.00,,,0.00,WeatherCatV1.15B25,2013-10-10 14:16:00,
2013-10-10 10:21:00,47.1,44.0,30.26,SE,126,0.0,0.0,89,0.00,,,0.00,WeatherCatV1.15B25,2013-10-10 14:21:00,
2013-10-10 10:26:00,47.2,44.1,30.26,SE,126,0.0,0.0,89,0.00,,,0.00,WeatherCatV1.15B25,2013-10-10 14:26:00,
2013-10-10 10:31:00,47.3,44.2,30.26,SE,126,0.0,0.0,89,0.00,,,0.00,WeatherCatV1.15B25,2013-10-10 14:31:00,
2013-10-10 10:36:00,47.3,43.9,30.26,SE,126,0.0,1.0,88,0.00,,,0.00,WeatherCatV1.15B25,2013-10-10 14:36:00,
2013-10-10 10:41:00,47.3,44.2,30.26,SE,126,0.0,1.0,89,0.00,,,0.00,WeatherCatV1.15B25,2013-10-10 14:41:00,
2013-10-10 10:46:00,47.4,44.0,30.26,SE,126,0.0,0.0,88,0.00,,,0.00,WeatherCatV1.15B25,2013-10-10 14:46:00,
2013-10-10 10:51:00,47.5,44.4,30.26,East,92,0.0,0.0,89,0.00,,,0.00,WeatherCatV1.15B25,2013-10-10 14:51:00,
2013-10-10 10:56:00,47.5,44.1,30.26,East,91,0.0,0.0,88,0.00,,,0.00,WeatherCatV1.15B25,2013-10-10 14:56:00,
2013-10-10 11:01:00,47.7,44.6,30.26,East,91,0.0,0.0,89,0.00,,,0.00,WeatherCatV1.15B25,2013-10-10 15:01:00,
2013-10-10 11:06:00,47.8,44.7,30.25,East,90,0.0,0.0,89,0.00,,,0.00,WeatherCatV1.15B25,2013-10-10 15:06:00,
2013-10-10 11:11:00,47.8,44.7,30.25,NE,46,0.0,1.0,89,0.00,,,0.00,WeatherCatV1.15B25,2013-10-10 15:11:00,
2013-10-10 11:16:00,47.8,44.7,30.25,NE,46,0.0,0.0,89,0.00,,,0.00,WeatherCatV1.15B25,2013-10-10 15:16:00,
2013-10-10 11:21:00,47.9,44.8,30.25,NE,44,0.0,0.0,89,0.00,,,0.00,WeatherCatV1.15B25,2013-10-10 15:21:00,
2013-10-10 11:26:00,48.0,44.9,30.25,NE,52,0.0,1.0,89,0.00,,,0.00,WeatherCatV1.15B25,2013-10-10 15:26:00,
2013-10-10 11:31:00,48.1,45.0,30.25,NE,53,0.0,0.0,89,0.00,,,0.00,WeatherCatV1.15B25,2013-10-10 15:31:00,
2013-10-10 11:36:00,48.2,45.4,30.25,NNE,30,0.0,0.0,90,0.00,,,0.00,WeatherCatV1.15B25,2013-10-10 15:36:00,
2013-10-10 11:41:00,48.2,45.1,30.25,NE,45,0.0,0.0,89,0.00,,,0.00,WeatherCatV1.15B25,2013-10-10 15:41:00,
2013-10-10 11:46:00,48.2,45.4,30.24,NE,45,0.0,0.0,90,0.00,,,0.00,WeatherCatV1.15B25,2013-10-10 15:46:00,
2013-10-10 11:51:00,48.4,45.6,30.24,NE,46,0.0,0.0,90,0.00,,,0.00,WeatherCatV1.15B25,2013-10-10 15:51:00,
2013-10-10 11:56:00,48.5,45.7,30.24,NE,49,2.0,2.0,90,0.00,,,0.00,WeatherCatV1.15B25,2013-10-10 15:56:00,
2013-10-10 12:01:00,48.6,45.8,30.24,NE,43,0.0,0.0,90,0.00,,,0.00,WeatherCatV1.15B25,2013-10-10 16:01:00,
2013-10-10 12:06:00,48.7,45.9,30.24,NE,46,0.0,0.0,90,0.00,,,0.00,WeatherCatV1.15B25,2013-10-10 16:06:00,
2013-10-10 12:11:00,48.7,45.9,30.24,NE,46,0.0,0.0,90,0.00,,,0.00,WeatherCatV1.15B25,2013-10-10 16:11:00,
2013-10-10 12:16:00,48.7,45.9,30.24,NE,46,0.0,0.0,90,0.00,,,0.00,WeatherCatV1.15B25,2013-10-10 16:16:00,
2013-10-10 12:21:00,48.7,45.9,30.24,NE,41,0.0,0.0,90,0.00,,,0.00,WeatherCatV1.15B25,2013-10-10 16:21:00,
2013-10-10 12:26:00,48.8,46.0,30.24,NE,44,0.0,0.0,90,0.00,,,0.00,WeatherCatV1.15B25,2013-10-10 16:26:00,
2013-10-10 12:31:00,48.8,46.0,30.23,NE,44,0.0,0.0,90,0.00,,,0.00,WeatherCatV1.15B25,2013-10-10 16:31:00,
2013-10-10 12:36:00,48.9,46.1,30.23,NE,44,0.0,0.0,90,0.00,,,0.00,WeatherCatV1.15B25,2013-10-10 16:36:00,
2013-10-10 12:41:00,49.1,46.6,30.23,NE,44,0.0,0.0,91,0.00,,,0.00,WeatherCatV1.15B25,2013-10-10 16:41:00,
2013-10-10 12:46:00,49.2,46.4,30.23,NE,40,0.0,1.0,90,0.00,,,0.00,WeatherCatV1.15B25,2013-10-10 16:46:00,
2013-10-10 12:51:00,49.4,46.6,30.23,NE,40,0.0,0.0,90,0.00,,,0.00,WeatherCatV1.15B25,2013-10-10 16:51:00,
2013-10-10 12:56:00,49.6,46.8,30.23,NE,40,0.0,0.0,90,0.00,,,0.00,WeatherCatV1.15B25,2013-10-10 16:56:00,
2013-10-10 13:01:00,49.7,46.9,30.23,NE,40,0.0,0.0,90,0.00,,,0.00,WeatherCatV1.15B25,2013-10-10 17:01:00,
2013-10-10 13:06:00,49.8,47.0,30.23,NE,40,0.0,0.0,90,0.00,,,0.00,WeatherCatV1.15B25,2013-10-10 17:06:00,
2013-10-10 13:11:00,49.8,46.7,30.23,NE,56,0.0,0.0,89,0.00,,,0.00,WeatherCatV1.15B25,2013-10-10 17:11:00,
2013-10-10 13:16:00,49.8,46.7,30.23,NE,56,0.0,1.0,89,0.00,,,0.00,WeatherCatV1.15B25,2013-10-10 17:16:00,
2013-10-10 13:21:00,49.8,47.0,30.23,NE,56,0.0,0.0,90,0.00,,,0.00,WeatherCatV1.15B25,2013-10-10 17:21:00,
2013-10-10 13:26:00,49.9,46.8,30.23,NE,52,0.0,1.0,89,0.00,,,0.00,WeatherCatV1.15B25,2013-10-10 17:26:00,
2013-10-10 13:31:00,50.1,47.3,30.23,NE,51,0.0,0.0,90,0.00,,,0.00,WeatherCatV1.15B25,2013-10-10 17:31:00,
2013-10-10 13:36:00,50.2,47.1,30.23,NE,51,0.0,0.0,89,0.00,,,0.00,WeatherCatV1.15B25,2013-10-10 17:36:00,
2013-10-10 13:41:00,50.4,47.3,30.23,NE,51,0.0,1.0,89,0.00,,,0.00,WeatherCatV1.15B25,2013-10-10 17:41:00,
2013-10-10 13:46:00,50.5,47.4,30.23,NE,51,0.0,0.0,89,0.00,,,0.00,WeatherCatV1.15B25,2013-10-10 17:46:00,
2013-10-10 13:51:00,50.8,47.7,30.22,NE,51,0.0,0.0,89,0.00,,,0.00,WeatherCatV1.15B25,2013-10-10 17:51:00,
2013-10-10 13:56:00,51.3,48.2,30.23,NE,51,0.0,1.0,89,0.00,,,0.00,WeatherCatV1.15B25,2013-10-10 17:56:00,
2013-10-10 14:01:00,51.6,48.2,30.22,NE,42,0.0,0.0,88,0.00,,,0.00,WeatherCatV1.15B25,2013-10-10 18:01:00,
2013-10-10 14:06:00,51.8,48.4,30.22,NE,42,0.0,0.0,88,0.00,,,0.00,WeatherCatV1.15B25,2013-10-10 18:06:00,
2013-10-10 14:11:00,52.1,48.7,30.22,NE,42,0.0,0.0,88,0.00,,,0.00,WeatherCatV1.15B25,2013-10-10 18:11:00,
2013-10-10 14:16:00,52.3,48.9,30.22,NE,42,0.0,1.0,88,0.00,,,0.00,WeatherCatV1.15B25,2013-10-10 18:16:00,
2013-10-10 14:21:00,52.3,48.2,30.22,NE,42,0.0,1.0,86,0.00,,,0.00,WeatherCatV1.15B25,2013-10-10 18:21:00,
2013-10-10 14:26:00,52.3,48.5,30.21,NE,43,0.0,0.0,87,0.00,,,0.00,WeatherCatV1.15B25,2013-10-10 18:26:00,
2013-10-10 14:31:00,52.3,48.5,30.21,NE,38,0.0,0.0,87,0.00,,,0.00,WeatherCatV1.15B25,2013-10-10 18:31:00,
2013-10-10 14:36:00,52.4,48.6,30.21,NE,46,0.0,0.0,87,0.00,,,0.00,WeatherCatV1.15B25,2013-10-10 18:36:00,
2013-10-10 14:41:00,52.4,48.6,30.21,NNW,329,0.0,1.0,87,0.00,,,0.00,WeatherCatV1.15B25,2013-10-10 18:41:00,
2013-10-10 14:46:00,52.4,49.0,30.21,NE,51,0.0,1.0,88,0.00,,,0.00,WeatherCatV1.15B25,2013-10-10 18:46:00,
2013-10-10 14:51:00,52.4,48.6,30.21,NE,40,0.0,1.0,87,0.00,,,0.00,WeatherCatV1.15B25,2013-10-10 18:51:00,
2013-10-10 14:56:00,52.3,48.9,30.21,ENE,74,0.0,1.0,88,0.00,,,0.00,WeatherCatV1.15B25,2013-10-10 18:56:00,
2013-10-10 15:01:00,52.1,48.7,30.21,East,94,0.0,0.0,88,0.00,,,0.00,WeatherCatV1.15B25,2013-10-10 19:01:00,
2013-10-10 15:06:00,52.1,48.7,30.21,NE,38,0.0,0.0,88,0.00,,,0.00,WeatherCatV1.15B25,2013-10-10 19:06:00,
2013-10-10 15:11:00,52.0,48.6,30.21,NE,50,0.0,1.0,88,0.00,,,0.00,WeatherCatV1.15B25,2013-10-10 19:11:00,
2013-10-10 15:16:00,51.9,48.5,30.20,NE,49,0.0,0.0,88,0.00,,,0.00,WeatherCatV1.15B25,2013-10-10 19:16:00,
2013-10-10 15:21:00,51.7,48.3,30.20,NE,49,0.0,0.0,88,0.00,,,0.00,WeatherCatV1.15B25,2013-10-10 19:21:00,
2013-10-10 15:26:00,51.6,48.5,30.20,NE,49,0.0,0.0,89,0.00,,,0.00,WeatherCatV1.15B25,2013-10-10 19:26:00,
2013-10-10 15:31:00,51.5,48.4,30.20,NE,49,0.0,0.0,89,0.00,,,0.00,WeatherCatV1.15B25,2013-10-10 19:31:00,
2013-10-10 15:36:00,51.5,48.7,30.20,NE,50,0.0,1.0,90,0.00,,,0.00,WeatherCatV1.15B25,2013-10-10 19:36:00,
2013-10-10 15:41:00,51.4,48.6,30.19,NE,49,0.0,0.0,90,0.00,,,0.00,WeatherCatV1.15B25,2013-10-10 19:41:00,
2013-10-10 15:46:00,51.4,48.9,30.19,NE,49,0.0,0.0,91,0.00,,,0.00,WeatherCatV1.15B25,2013-10-10 19:46:00,
2013-10-10 15:51:00,51.4,48.9,30.19,NE,47,0.0,1.0,91,0.00,,,0.00,WeatherCatV1.15B25,2013-10-10 19:51:00,
2013-10-10 15:56:00,51.4,48.6,30.19,NE,46,0.0,0.0,90,0.00,,,0.00,WeatherCatV1.15B25,2013-10-10 19:56:00,
2013-10-10 16:01:00,51.4,48.6,30.19,NE,49,0.0,0.0,90,0.00,,,0.00,WeatherCatV1.15B25,2013-10-10 20:01:00,
2013-10-10 16:06:00,51.3,48.5,30.18,NE,49,0.0,0.0,90,0.00,,,0.00,WeatherCatV1.15B25,2013-10-10 20:06:00,
2013-10-10 16:11:00,51.5,49.0,30.18,NE,49,0.0,0.0,91,0.00,,,0.00,WeatherCatV1.15B25,2013-10-10 20:11:00,
2013-10-10 16:16:00,51.5,48.7,30.18,NE,49,0.0,0.0,90,0.00,,,0.00,WeatherCatV1.15B25,2013-10-10 20:16:00,
2013-10-10 16:21:00,51.4,48.6,30.18,NE,49,0.0,0.0,90,0.00,,,0.00,WeatherCatV1.15B25,2013-10-10 20:21:00,
2013-10-10 16:26:00,51.4,48.6,30.18,NE,49,0.0,0.0,90,0.00,,,0.00,WeatherCatV1.15B25,2013-10-10 20:26:00,
2013-10-10 16:31:00,51.3,48.2,30.18,NE,49,0.0,0.0,89,0.00,,,0.00,WeatherCatV1.15B25,2013-10-10 20:31:00,
2013-10-10 16:36:00,51.2,48.1,30.18,NE,49,0.0,2.0,89,0.00,,,0.00,WeatherCatV1.15B25,2013-10-10 20:36:00,
2013-10-10 16:41:00,51.1,48.0,30.18,NE,48,0.0,1.0,89,0.00,,,0.00,WeatherCatV1.15B25,2013-10-10 20:41:00,
2013-10-10 16:46:00,50.9,47.8,30.18,NE,49,0.0,0.0,89,0.00,,,0.00,WeatherCatV1.15B25,2013-10-10 20:46:00,
2013-10-10 16:51:00,50.8,47.7,30.18,ENE,57,0.0,1.0,89,0.00,,,0.00,WeatherCatV1.15B25,2013-10-10 20:51:00,
2013-10-10 16:56:00,50.8,48.0,30.18,ENE,61,0.0,0.0,90,0.00,,,0.00,WeatherCatV1.15B25,2013-10-10 20:56:00,
2013-10-10 17:01:00,50.7,47.9,30.17,NE,46,0.0,0.0,90,0.00,,,0.00,WeatherCatV1.15B25,2013-10-10 21:01:00,
2013-10-10 17:06:00,50.7,47.9,30.17,East,85,0.0,1.0,90,0.00,,,0.00,WeatherCatV1.15B25,2013-10-10 21:06:00,
2013-10-10 17:11:00,50.6,47.8,30.17,East,84,0.0,0.0,90,0.00,,,0.00,WeatherCatV1.15B25,2013-10-10 21:11:00,
2013-10-10 17:16:00,50.6,47.8,30.17,East,84,0.0,1.0,90,0.00,,,0.00,WeatherCatV1.15B25,2013-10-10 21:16:00,
2013-10-10 17:21:00,50.6,47.8,30.17,East,85,0.0,1.0,90,0.00,,,0.00,WeatherCatV1.15B25,2013-10-10 21:21:00,
2013-10-10 17:26:00,50.6,47.8,30.17,East,85,0.0,0.0,90,0.00,,,0.00,WeatherCatV1.15B25,2013-10-10 21:26:00,
2013-10-10 17:31:00,50.6,48.1,30.17,East,84,0.0,1.0,91,0.00,,,0.00,WeatherCatV1.15B25,2013-10-10 21:31:00,
2013-10-10 17:36:00,50.6,48.1,30.17,East,84,0.0,1.0,91,0.00,,,0.00,WeatherCatV1.15B25,2013-10-10 21:36:00,
2013-10-10 17:41:00,50.5,48.0,30.17,NE,47,0.0,1.0,91,0.00,,,0.00,WeatherCatV1.15B25,2013-10-10 21:41:00,
2013-10-10 17:46:00,50.5,48.0,30.16,NE,46,0.0,1.0,91,0.00,,,0.00,WeatherCatV1.15B25,2013-10-10 21:46:00,
2013-10-10 17:51:00,50.5,48.0,30.16,NE,39,0.0,0.0,91,0.00,,,0.00,WeatherCatV1.15B25,2013-10-10 21:51:00,
2013-10-10 17:56:00,50.5,48.0,30.16,NE,44,0.0,2.0,91,0.00,,,0.00,WeatherCatV1.15B25,2013-10-10 21:56:00,
2013-10-10 18:01:00,50.4,47.9,30.16,NE,39,0.0,2.0,91,0.00,,,0.00,WeatherCatV1.15B25,2013-10-10 22:01:00,
2013-10-10 18:06:00,50.4,47.9,30.16,NNE,32,0.0,1.0,91,0.00,,,0.00,WeatherCatV1.15B25,2013-10-10 22:06:00,
2013-10-10 18:11:00,50.4,47.9,30.16,NE,34,0.0,0.0,91,0.00,,,0.00,WeatherCatV1.15B25,2013-10-10 22:11:00,
2013-10-10 18:16:00,50.5,48.0,30.17,NE,42,0.0,0.0,91,0.00,,,0.00,WeatherCatV1.15B25,2013-10-10 22:16:00,
2013-10-10 18:21:00,50.5,48.0,30.17,SE,133,0.0,1.0,91,0.00,,,0.00,WeatherCatV1.15B25,2013-10-10 22:21:00,
2013-10-10 18:26:00,50.5,48.0,30.17,NNE,28,0.0,1.0,91,0.00,,,0.00,WeatherCatV1.15B25,2013-10-10 22:26:00,
2013-10-10 18:31:00,50.5,48.0,30.17,NE,42,0.0,0.0,91,0.00,,,0.00,WeatherCatV1.15B25,2013-10-10 22:31:00,
2013-10-10 18:36:00,50.5,48.0,30.17,NE,43,0.0,1.0,91,0.00,,,0.00,WeatherCatV1.15B25,2013-10-10 22:36:00,
2013-10-10 18:41:00,50.5,48.0,30.18,NE,44,0.0,1.0,91,0.00,,,0.00,WeatherCatV1.15B25,2013-10-10 22:41:00,
2013-10-10 18:46:00,50.5,48.0,30.18,NE,42,0.0,0.0,91,0.00,,,0.00,WeatherCatV1.15B25,2013-10-10 22:46:00,
2013-10-10 18:51:00,50.5,48.0,30.17,NE,41,0.0,0.0,91,0.00,,,0.00,WeatherCatV1.15B25,2013-10-10 22:51:00,
2013-10-10 18:56:00,50.5,48.0,30.17,NE,41,0.0,0.0,91,0.00,,,0.00,WeatherCatV1.15B25,2013-10-10 22:56:00,
2013-10-10 19:01:00,50.6,48.1,30.17,NE,45,0.0,0.0,91,0.00,,,0.00,WeatherCatV1.15B25,2013-10-10 23:01:00,
2013-10-10 19:06:00,50.6,48.1,30.18,NE,45,0.0,1.0,91,0.00,,,0.00,WeatherCatV1.15B25,2013-10-10 23:06:00,
2013-10-10 19:11:00,50.6,48.1,30.18,NE,45,0.0,0.0,91,0.00,,,0.00,WeatherCatV1.15B25,2013-10-10 23:11:00,
2013-10-10 19:16:00,50.7,48.2,30.17,NE,47,0.0,1.0,91,0.00,,,0.00,WeatherCatV1.15B25,2013-10-10 23:16:00,
2013-10-10 19:21:00,50.8,48.3,30.18,NE,47,0.0,1.0,91,0.21,,,0.20,WeatherCatV1.15B25,2013-10-10 23:21:00,
2013-10-10 19:26:00,50.8,48.3,30.18,NE,48,0.0,1.0,91,0.08,,,0.20,WeatherCatV1.15B25,2013-10-10 23:26:00,
2013-10-10 19:31:00,50.8,48.3,30.17,NE,45,0.0,0.0,91,0.05,,,0.20,WeatherCatV1.15B25,2013-10-10 23:31:00,
2013-10-10 19:36:00,50.9,48.4,30.17,NE,42,0.0,1.0,91,0.00,,,0.20,WeatherCatV1.15B25,2013-10-10 23:36:00,
2013-10-10 19:41:00,50.9,48.4,30.17,NE,44,0.0,0.0,91,0.00,,,0.20,WeatherCatV1.15B25,2013-10-10 23:41:00,
2013-10-10 19:46:00,50.9,48.4,30.17,NE,44,0.0,1.0,91,0.00,,,0.20,WeatherCatV1.15B25,2013-10-10 23:46:00,
2013-10-10 19:51:00,50.9,48.4,30.17,NE,44,0.0,0.0,91,0.00,,,0.20,WeatherCatV1.15B25,2013-10-10 23:51:00,
2013-10-10 19:56:00,50.8,48.3,30.17,NE,44,0.0,0.0,91,0.00,,,0.20,WeatherCatV1.15B25,2013-10-10 23:56:00,
2013-10-10 20:01:00,50.8,48.6,30.17,NE,44,0.0,0.0,92,0.00,,,0.20,WeatherCatV1.15B25,2013-10-11 00:01:00,
2013-10-10 20:06:00,50.7,48.5,30.17,NE,44,0.0,1.0,92,0.00,,,0.20,WeatherCatV1.15B25,2013-10-11 00:06:00,
2013-10-10 20:11:00,50.5,48.3,30.17,NE,42,0.0,1.0,92,0.00,,,0.20,WeatherCatV1.15B25,2013-10-11 00:11:00,
2013-10-10 20:16:00,50.4,48.2,30.17,NE,42,0.0,0.0,92,0.00,,,0.20,WeatherCatV1.15B25,2013-10-11 00:16:00,
2013-10-10 20:21:00,50.4,48.2,30.17,NE,44,0.0,0.0,92,0.00,,,0.20,WeatherCatV1.15B25,2013-10-11 00:21:00,
2013-10-10 20:26:00,50.4,48.5,30.17,NE,44,0.0,0.0,93,0.00,,,0.20,WeatherCatV1.15B25,2013-10-11 00:26:00,
2013-10-10 20:31:00,50.4,48.5,30.17,NE,44,0.0,0.0,93,0.00,,,0.20,WeatherCatV1.15B25,2013-10-11 00:31:00,
2013-10-10 20:36:00,50.3,48.4,30.17,NE,44,0.0,0.0,93,0.00,,,0.20,WeatherCatV1.15B25,2013-10-11 00:36:00,
2013-10-10 20:41:00,50.3,48.4,30.17,NE,44,0.0,0.0,93,0.00,,,0.20,WeatherCatV1.15B25,2013-10-11 00:41:00,
2013-10-10 20:46:00,50.2,48.3,30.17,NE,44,0.0,0.0,93,0.00,,,0.20,WeatherCatV1.15B25,2013-10-11 00:46:00,
2013-10-10 20:51:00,50.1,48.2,30.17,NE,44,0.0,1.0,93,0.00,,,0.20,WeatherCatV1.15B25,2013-10-11 00:51:00,
2013-10-10 20:56:00,50.1,48.2,30.17,NE,44,0.0,0.0,93,0.00,,,0.20,WeatherCatV1.15B25,2013-10-11 00:56:00,
2013-10-10 21:01:00,50.1,48.2,30.17,NE,44,0.0,0.0,93,0.00,,,0.20,WeatherCatV1.15B25,2013-10-11 01:01:00,
2013-10-10 21:06:00,50.2,48.3,30.16,NE,44,0.0,0.0,93,0.00,,,0.20,WeatherCatV1.15B25,2013-10-11 01:06:00,
2013-10-10 21:11:00,50.4,48.5,30.17,NE,44,0.0,0.0,93,0.00,,,0.20,WeatherCatV1.15B25,2013-10-11 01:11:00,
2013-10-10 21:16:00,50.6,48.7,30.17,NE,44,0.0,0.0,93,0.00,,,0.20,WeatherCatV1.15B25,2013-10-11 01:16:00,
2013-10-10 21:21:00,50.7,48.7,30.17,NE,44,0.0,0.0,93,0.00,,,0.20,WeatherCatV1.15B25,2013-10-11 01:21:00,
2013-10-10 21:26:00,50.8,48.8,30.17,NE,44,0.0,1.0,93,0.00,,,0.20,WeatherCatV1.15B25,2013-10-11 01:26:00,
2013-10-10 21:31:00,50.8,48.6,30.17,NE,44,0.0,0.0,92,0.00,,,0.20,WeatherCatV1.15B25,2013-10-11 01:31:00,
2013-10-10 21:36:00,50.6,48.7,30.17,NE,44,0.0,0.0,93,0.00,,,0.20,WeatherCatV1.15B25,2013-10-11 01:36:00,
2013-10-10 21:41:00,50.4,48.5,30.17,NE,44,0.0,0.0,93,0.00,,,0.20,WeatherCatV1.15B25,2013-10-11 01:41:00,
2013-10-10 21:46:00,50.3,48.4,30.17,NE,44,0.0,0.0,93,0.00,,,0.20,WeatherCatV1.15B25,2013-10-11 01:46:00,
2013-10-10 21:51:00,50.1,48.2,30.17,NE,48,0.0,0.0,93,0.00,,,0.20,WeatherCatV1.15B25,2013-10-11 01:51:00,
2013-10-10 21:56:00,50.0,48.1,30.17,NE,48,0.0,0.0,93,0.00,,,0.20,WeatherCatV1.15B25,2013-10-11 01:56:00,
2013-10-10 22:01:00,49.9,48.0,30.17,NE,44,0.0,0.0,93,0.00,,,0.20,WeatherCatV1.15B25,2013-10-11 02:01:00,
2013-10-10 22:06:00,50.0,48.1,30.17,NE,44,0.0,0.0,93,0.00,,,0.20,WeatherCatV1.15B25,2013-10-11 02:06:00,
2013-10-10 22:11:00,50.0,48.1,30.17,NE,46,0.0,0.0,93,0.00,,,0.20,WeatherCatV1.15B25,2013-10-11 02:11:00,
2013-10-10 22:16:00,50.0,48.1,30.17,NE,45,0.0,0.0,93,0.00,,,0.20,WeatherCatV1.15B25,2013-10-11 02:16:00,
2013-10-10 22:21:00,50.1,47.9,30.17,NE,45,0.0,0.0,92,0.00,,,0.20,WeatherCatV1.15B25,2013-10-11 02:21:00,
2013-10-10 22:26:00,50.1,47.9,30.16,NE,45,0.0,0.0,92,0.00,,,0.20,WeatherCatV1.15B25,2013-10-11 02:26:00,
2013-10-10 22:31:00,50.2,48.0,30.17,NE,42,0.0,0.0,92,0.00,,,0.20,WeatherCatV1.15B25,2013-10-11 02:31:00,
2013-10-10 22:36:00,50.2,47.7,30.17,NE,42,0.0,1.0,91,0.00,,,0.20,WeatherCatV1.15B25,2013-10-11 02:36:00,
2013-10-10 22:41:00,50.3,47.5,30.17,NE,45,0.0,0.0,90,0.00,,,0.20,WeatherCatV1.15B25,2013-10-11 02:41:00,
2013-10-10 22:46:00,50.3,47.5,30.17,NNE,32,0.0,1.0,90,0.00,,,0.20,WeatherCatV1.15B25,2013-10-11 02:46:00,
2013-10-10 22:51:00,50.4,47.6,30.17,NNE,32,0.0,0.0,90,0.00,,,0.20,WeatherCatV1.15B25,2013-10-11 02:51:00,
2013-10-10 22:56:00,50.3,47.2,30.17,NE,36,0.0,1.0,89,0.00,,,0.20,WeatherCatV1.15B25,2013-10-11 02:56:00,
2013-10-10 23:01:00,50.3,47.5,30.16,NE,36,0.0,1.0,90,0.00,,,0.20,WeatherCatV1.15B25,2013-10-11 03:01:00,
2013-10-10 23:06:00,50.1,47.3,30.16,NE,40,0.0,1.0,90,0.00,,,0.20,WeatherCatV1.15B25,2013-10-11 03:06:00,
2013-10-10 23:11:00,50.0,47.2,30.16,NE,38,0.0,0.0,90,0.00,,,0.20,WeatherCatV1.15B25,2013-10-11 03:11:00,
2013-10-10 23:16:00,49.9,47.1,30.15,NE,38,0.0,0.0,90,0.00,,,0.20,WeatherCatV1.15B25,2013-10-11 03:16:00,
2013-10-10 23:21:00,49.9,47.1,30.15,NE,38,0.0,0.0,90,0.00,,,0.20,WeatherCatV1.15B25,2013-10-11 03:21:00,
2013-10-10 23:26:00,49.8,47.0,30.16,NE,38,0.0,0.0,90,0.00,,,0.20,WeatherCatV1.15B25,2013-10-11 03:26:00,
2013-10-10 23:31:00,49.7,46.9,30.15,NE,38,0.0,0.0,90,0.00,,,0.20,WeatherCatV1.15B25,2013-10-11 03:31:00,
2013-10-10 23:36:00,49.8,47.3,30.15,NE,43,0.0,0.0,91,0.00,,,0.20,WeatherCatV1.15B25,2013-10-11 03:36:00,
2013-10-10 23:41:00,49.8,47.3,30.14,NE,42,0.0,0.0,91,0.00,,,0.20,WeatherCatV1.15B25,2013-10-11 03:41:00,
2013-10-10 23:46:00,49.9,47.4,30.14,NE,36,0.0,1.0,91,0.00,,,0.20,WeatherCatV1.15B25,2013-10-11 03:46:00,
2013-10-10 23:51:00,50.0,47.5,30.14,NE,37,0.0,1.0,91,0.00,,,0.20,WeatherCatV1.15B25,2013-10-11 03:51:00,
2013-10-10 23:56:00,50.0,47.5,30.14,NE,44,0.0,0.0,91,0.00,,,0.20,WeatherCatV1.15B25,2013-10-11 03:56:00,